Weather History for Montgomery, AL

Change the Weather History Date:

Friday, August 23, 2013

  Actual Average Record
Temperature  
Mean Temperature 82 °F 81 °F  
Max Temperature 93 °F 92 °F 100 °F (1968)
Min Temperature 70 °F 71 °F 61 °F (2009)
Cooling Degree Days 17 16  
Month to date cooling degree days 375 386  
Year to date cooling degree days 1701 1665  
Since 1 June cooling degree days 1342 1326  
Growing Degree Days 32 (Base 50)    
Moisture  
Dew Point 70 °F    
Average Humidity 71    
Maximum Humidity 93    
Minimum Humidity 49    
Precipitation  
Precipitation 0.00 in 0.13 in 3.67 in (2008)
Month to date precipitation 2.78 2.95  
Year to date precipitation 41.70 35.70  
Sea Level Pressure  
Sea Level Pressure 30.03 in    
Wind  
Wind Speed 3 mph (ESE)    
Max Wind Speed 9 mph    
Max Gust Speed 13 mph    
Visibility 10 miles    
Events      
T = Trace of Precipitation, MM = Missing Value Source: NWS Daily Summary

Daily Weather History Graph

Daily Weather History Graph

Search for Another Location

Airport:

Trip Planner

Search our weather history database for the weather conditions in past years. The results will help you decide how hot, cold, wet, or windy it might be!

Date:

Astronomy

Aug. 23, 2013 Rise Set
Actual Time 6:15 AM CDT 7:20 PM CDT
Civil Twilight 5:49 AM CDT 7:46 PM CDT
Nautical Twilight 5:19 AM CDT 8:16 PM CDT
Astronomical Twilight 4:48 AM CDT 8:47 PM CDT
Moon 8:54 PM CDT (8/23) 8:56 AM CDT (8/23)
Length of Visible Light 13h 56m
Length of Day
13h 05m
Waning Gibbous, 91% of the Moon is Illuminated
Aug 23
Waning Gibbous
Aug 28
Last Quarter
Sep 5
New
Sep 12
First Quarter
Sep 19
Full

Hourly Weather History & Observations

Time (CDT) Temp. Heat Index Dew Point Humidity Pressure Visibility Wind Dir Wind Speed Gust Speed Precip Events Conditions
12:53 AM 73.9 °F - 70.0 °F 87% 30.06 in 10.0 mi Calm Calm - N/A   Clear
1:53 AM 73.9 °F - 70.0 °F 87% 30.04 in 10.0 mi Calm Calm - N/A   Clear
2:53 AM 72.0 °F - 69.1 °F 91% 30.02 in 10.0 mi Calm Calm - N/A   Clear
3:53 AM 71.1 °F - 68.0 °F 90% 30.02 in 10.0 mi ESE 3.5 mph - N/A   Clear
4:53 AM 71.1 °F - 68.0 °F 90% 30.03 in 10.0 mi Calm Calm - N/A   Clear
5:53 AM 71.1 °F - 68.0 °F 90% 30.04 in 10.0 mi Calm Calm - N/A   Clear
6:53 AM 72.0 °F - 69.1 °F 91% 30.05 in 10.0 mi Calm Calm - N/A   Clear
7:53 AM 77.0 °F - 70.0 °F 79% 30.07 in 10.0 mi Calm Calm - N/A   Clear
8:53 AM 80.1 °F 83.2 °F 70.0 °F 71% 30.07 in 10.0 mi Variable 3.5 mph - N/A   Clear
9:53 AM 82.0 °F 86.3 °F 71.1 °F 69% 30.08 in 10.0 mi Variable 4.6 mph - N/A   Clear
10:53 AM 84.0 °F 89.0 °F 71.1 °F 65% 30.06 in 10.0 mi NE 6.9 mph - N/A   Partly Cloudy
11:53 AM 88.0 °F 92.9 °F 70.0 °F 55% 30.05 in 10.0 mi Variable 4.6 mph - N/A   Clear
12:53 PM 90.0 °F 94.5 °F 69.1 °F 50% 30.03 in 10.0 mi East 5.8 mph - N/A   Clear
1:53 PM 91.0 °F 95.6 °F 69.1 °F 48% 30.01 in 10.0 mi Variable 5.8 mph - N/A   Partly Cloudy
2:53 PM 91.9 °F 96.9 °F 69.1 °F 47% 30.00 in 10.0 mi ESE 8.1 mph - N/A   Scattered Clouds
3:53 PM 91.9 °F 96.9 °F 69.1 °F 47% 29.98 in 10.0 mi SSE 8.1 mph - N/A   Clear
4:53 PM 91.0 °F 95.6 °F 69.1 °F 48% 29.98 in 10.0 mi South 3.5 mph - N/A   Scattered Clouds
5:53 PM 89.1 °F 94.1 °F 70.0 °F 53% 29.97 in 10.0 mi South 4.6 mph - N/A   Clear
6:53 PM 86.0 °F 91.5 °F 71.1 °F 61% 29.98 in 10.0 mi NE 6.9 mph - N/A   Clear
7:53 PM 82.0 °F 86.7 °F 72.0 °F 71% 30.00 in 10.0 mi East 3.5 mph - N/A   Partly Cloudy
8:53 PM 81.0 °F 85.2 °F 72.0 °F 74% 30.01 in 10.0 mi ENE 3.5 mph - N/A   Clear
9:53 PM 79.0 °F - 72.0 °F 79% 30.03 in 10.0 mi East 5.8 mph - N/A   Partly Cloudy
10:53 PM 78.1 °F - 72.0 °F 81% 30.04 in 10.0 mi East 3.5 mph - N/A   Clear
11:53 PM 77.0 °F - 72.0 °F 84% 30.04 in 10.0 mi Calm Calm - N/A   Clear